Time,TemperatureF,DewpointF,PressureIn,WindDirection,WindDirectionDegrees,WindSpeedMPH,WindSpeedGustMPH,Humidity,HourlyPrecipIn,Conditions,Clouds,dailyrainin,SoftwareType,DateUTC
2013-02-13 00:02:00,23.0,-99.9,-100.00,North,0,0.0,-999.0,-999,-99.99,,,-99.99,,2013-02-13 06:02:00,
2013-02-13 00:12:00,24.0,-99.9,-100.00,North,0,0.0,-999.0,-999,-99.99,,,-99.99,,2013-02-13 06:12:00,
2013-02-13 00:22:00,23.0,-99.9,-100.00,North,0,0.0,-999.0,-999,-99.99,,,-99.99,,2013-02-13 06:22:00,
2013-02-13 00:32:00,24.0,-99.9,-100.00,North,0,0.0,-999.0,-999,-99.99,,,-99.99,,2013-02-13 06:32:00,
2013-02-13 00:42:00,24.0,-99.9,-100.00,North,0,0.0,-999.0,-999,-99.99,,,-99.99,,2013-02-13 06:42:00,
2013-02-13 00:52:00,24.0,-99.9,-100.00,North,0,0.0,-999.0,-999,-99.99,,,-99.99,,2013-02-13 06:52:00,
2013-02-13 01:02:00,24.0,-99.9,-100.00,North,0,0.0,-999.0,-999,-99.99,,,-99.99,,2013-02-13 07:02:00,
2013-02-13 01:22:00,23.0,-99.9,-100.00,North,0,0.0,-999.0,-999,-99.99,,,-99.99,,2013-02-13 07:22:00,
2013-02-13 01:32:00,23.0,-99.9,-100.00,North,0,0.0,-999.0,-999,-99.99,,,-99.99,,2013-02-13 07:32:00,
2013-02-13 01:42:00,23.0,-99.9,-100.00,North,0,0.0,-999.0,-999,-99.99,,,-99.99,,2013-02-13 07:42:00,
2013-02-13 01:52:00,22.0,-99.9,-100.00,North,0,0.0,-999.0,-999,-99.99,,,-99.99,,2013-02-13 07:52:00,
2013-02-13 02:01:00,21.0,-99.9,-100.00,North,0,0.0,-999.0,-999,-99.99,,,-99.99,,2013-02-13 08:01:00,
2013-02-13 02:12:00,20.0,-99.9,-100.00,North,0,0.0,-999.0,-999,-99.99,,,-99.99,,2013-02-13 08:12:00,
2013-02-13 02:22:00,20.0,-99.9,-100.00,North,0,0.0,-999.0,-999,-99.99,,,-99.99,,2013-02-13 08:22:00,
2013-02-13 02:32:00,20.0,-99.9,-100.00,North,0,0.0,-999.0,-999,-99.99,,,-99.99,,2013-02-13 08:32:00,
2013-02-13 02:43:00,21.0,-99.9,-100.00,North,-999,0.0,-999.0,-999,-99.99,,,-99.99,,2013-02-13 08:43:00,
2013-02-13 02:52:00,21.0,-99.9,-100.00,North,0,0.0,-999.0,-999,-99.99,,,-99.99,,2013-02-13 08:52:00,
2013-02-13 03:02:00,20.0,-99.9,-100.00,North,0,0.0,-999.0,-999,-99.99,,,-99.99,,2013-02-13 09:02:00,
2013-02-13 03:11:00,21.0,-99.9,-100.00,North,0,0.0,-999.0,-999,-99.99,,,-99.99,,2013-02-13 09:11:00,
2013-02-13 03:22:00,20.0,-99.9,-100.00,North,0,0.0,-999.0,-999,-99.99,,,-99.99,,2013-02-13 09:22:00,
2013-02-13 03:32:00,20.0,-99.9,-100.00,North,0,0.0,-999.0,-999,-99.99,,,-99.99,,2013-02-13 09:32:00,
2013-02-13 03:42:00,21.0,-99.9,-100.00,North,0,0.0,-999.0,-999,-99.99,,,-99.99,,2013-02-13 09:42:00,
2013-02-13 03:52:00,20.0,-99.9,-100.00,North,0,0.0,-999.0,-999,-99.99,,,-99.99,,2013-02-13 09:52:00,
2013-02-13 04:01:00,20.0,-99.9,-100.00,North,0,0.0,-999.0,-999,-99.99,,,-99.99,,2013-02-13 10:01:00,
2013-02-13 04:11:00,21.0,-99.9,-100.00,North,0,0.0,-999.0,-999,-99.99,,,-99.99,,2013-02-13 10:11:00,
2013-02-13 04:22:00,21.0,-99.9,-100.00,North,0,0.0,-999.0,-999,-99.99,,,-99.99,,2013-02-13 10:22:00,
2013-02-13 04:32:00,21.0,-99.9,-100.00,North,0,0.0,-999.0,-999,-99.99,,,-99.99,,2013-02-13 10:32:00,
2013-02-13 04:42:00,22.0,-99.9,-100.00,North,0,0.0,-999.0,-999,-99.99,,,-99.99,,2013-02-13 10:42:00,
2013-02-13 04:52:00,22.0,-99.9,-100.00,North,0,0.0,-999.0,-999,-99.99,,,-99.99,,2013-02-13 10:52:00,
2013-02-13 05:01:00,21.0,-99.9,-100.00,North,0,0.0,-999.0,-999,-99.99,,,-99.99,,2013-02-13 11:01:00,
2013-02-13 05:11:00,21.0,-99.9,-100.00,North,0,0.0,-999.0,-999,-99.99,,,-99.99,,2013-02-13 11:11:00,
2013-02-13 05:22:00,21.0,-99.9,-100.00,North,0,0.0,-999.0,-999,-99.99,,,-99.99,,2013-02-13 11:22:00,
2013-02-13 05:32:00,21.0,-99.9,-100.00,North,0,0.0,-999.0,-999,-99.99,,,-99.99,,2013-02-13 11:32:00,
2013-02-13 05:42:00,19.0,-99.9,-100.00,North,0,0.0,-999.0,-999,-99.99,,,-99.99,,2013-02-13 11:42:00,
2013-02-13 05:52:00,20.0,-99.9,-100.00,North,0,0.0,-999.0,-999,-99.99,,,-99.99,,2013-02-13 11:52:00,
2013-02-13 06:02:00,20.0,-99.9,-100.00,North,0,0.0,-999.0,-999,-99.99,,,-99.99,,2013-02-13 12:02:00,
2013-02-13 06:11:00,21.0,-99.9,-100.00,North,0,0.0,-999.0,-999,-99.99,,,-99.99,,2013-02-13 12:11:00,
2013-02-13 06:22:00,20.0,-99.9,-100.00,North,0,0.0,-999.0,-999,-99.99,,,-99.99,,2013-02-13 12:22:00,
2013-02-13 06:32:00,20.0,-99.9,-100.00,North,0,0.0,-999.0,-999,-99.99,,,-99.99,,2013-02-13 12:32:00,
2013-02-13 06:42:00,19.0,-99.9,-100.00,North,0,0.0,-999.0,-999,-99.99,,,-99.99,,2013-02-13 12:42:00,
2013-02-13 06:52:00,19.0,-99.9,-100.00,North,0,0.0,-999.0,-999,-99.99,,,-99.99,,2013-02-13 12:52:00,
2013-02-13 07:02:00,20.0,-99.9,-100.00,North,0,0.0,-999.0,-999,-99.99,,,-99.99,,2013-02-13 13:02:00,
2013-02-13 07:12:00,21.0,-99.9,-100.00,North,0,0.0,-999.0,-999,-99.99,,,-99.99,,2013-02-13 13:12:00,
2013-02-13 07:22:00,20.0,-99.9,-100.00,North,0,0.0,-999.0,-999,-99.99,,,-99.99,,2013-02-13 13:22:00,
2013-02-13 07:32:00,21.0,-99.9,-100.00,North,0,0.0,-999.0,-999,-99.99,,,-99.99,,2013-02-13 13:32:00,
2013-02-13 07:42:00,21.0,-99.9,-100.00,North,0,0.0,-999.0,-999,-99.99,,,-99.99,,2013-02-13 13:42:00,
2013-02-13 07:52:00,22.0,-99.9,-100.00,North,0,0.0,-999.0,-999,-99.99,,,-99.99,,2013-02-13 13:52:00,
2013-02-13 08:01:00,22.0,-99.9,-100.00,North,0,0.0,-999.0,-999,-99.99,,,-99.99,,2013-02-13 14:01:00,
2013-02-13 08:11:00,22.0,-99.9,-100.00,North,0,0.0,-999.0,-999,-99.99,,,-99.99,,2013-02-13 14:11:00,
2013-02-13 08:22:00,22.0,-99.9,-100.00,North,0,0.0,-999.0,-999,-99.99,,,-99.99,,2013-02-13 14:22:00,
2013-02-13 08:32:00,22.0,-99.9,-100.00,North,0,0.0,-999.0,-999,-99.99,,,-99.99,,2013-02-13 14:32:00,
2013-02-13 08:42:00,21.0,-99.9,-100.00,North,0,0.0,-999.0,-999,-99.99,,,-99.99,,2013-02-13 14:42:00,
2013-02-13 08:52:00,21.0,-99.9,-100.00,North,0,0.0,-999.0,-999,-99.99,,,-99.99,,2013-02-13 14:52:00,
2013-02-13 09:02:00,21.0,-99.9,-100.00,North,0,0.0,-999.0,-999,-99.99,,,-99.99,,2013-02-13 15:02:00,
2013-02-13 09:11:00,26.0,-99.9,-100.00,North,0,0.0,-999.0,-999,-99.99,,,-99.99,,2013-02-13 15:11:00,
2013-02-13 09:22:00,27.0,-99.9,-100.00,North,0,0.0,-999.0,-999,-99.99,,,-99.99,,2013-02-13 15:22:00,
2013-02-13 09:32:00,28.0,-99.9,-100.00,North,0,0.0,-999.0,-999,-99.99,,,-99.99,,2013-02-13 15:32:00,
2013-02-13 09:42:00,29.0,-99.9,-100.00,North,0,0.0,-999.0,-999,-99.99,,,-99.99,,2013-02-13 15:42:00,
2013-02-13 09:52:00,30.0,-99.9,-100.00,South,175,1.0,-999.0,-999,-99.99,,,-99.99,,2013-02-13 15:52:00,
2013-02-13 10:02:00,31.0,-99.9,-100.00,North,0,0.0,-999.0,-999,-99.99,,,-99.99,,2013-02-13 16:02:00,
2013-02-13 10:12:00,32.0,-99.9,-100.00,North,0,0.0,-999.0,-999,-99.99,,,-99.99,,2013-02-13 16:12:00,
2013-02-13 10:21:00,32.0,32.0,-100.00,North,0,0.0,-999.0,99,-99.99,,,-99.99,,2013-02-13 16:21:00,
2013-02-13 10:32:00,33.0,32.0,-100.00,North,0,0.0,-999.0,98,-99.99,,,-99.99,,2013-02-13 16:32:00,
2013-02-13 10:42:00,33.0,33.0,-100.00,North,0,0.0,-999.0,98,-99.99,,,-99.99,,2013-02-13 16:42:00,
2013-02-13 10:52:00,34.0,-99.9,-100.00,North,0,0.0,-999.0,-999,-99.99,,,-99.99,,2013-02-13 16:52:00,
2013-02-13 11:02:00,35.0,-99.9,-100.00,North,0,0.0,-999.0,-999,-99.99,,,-99.99,,2013-02-13 17:02:00,
2013-02-13 11:11:00,35.0,-99.9,-100.00,North,0,0.0,-999.0,-999,-99.99,,,-99.99,,2013-02-13 17:11:00,
2013-02-13 11:22:00,37.0,-99.9,-100.00,North,0,0.0,-999.0,-999,-99.99,,,-99.99,,2013-02-13 17:22:00,
2013-02-13 11:32:00,38.0,36.0,-100.00,North,0,0.0,-999.0,94,-99.99,,,-99.99,,2013-02-13 17:32:00,
2013-02-13 11:42:00,39.0,37.0,-100.00,North,0,0.0,-999.0,92,-99.99,,,-99.99,,2013-02-13 17:42:00,
2013-02-13 11:52:00,39.0,36.0,-100.00,North,0,0.0,-999.0,87,-99.99,,,-99.99,,2013-02-13 17:52:00,
2013-02-13 12:02:00,39.0,36.0,-100.00,North,0,0.0,-999.0,87,-99.99,,,-99.99,,2013-02-13 18:02:00,
2013-02-13 12:11:00,41.0,34.0,-100.00,North,0,0.0,-999.0,76,-99.99,,,-99.99,,2013-02-13 18:11:00,
2013-02-13 12:23:00,41.0,33.0,-100.00,North,0,0.0,-999.0,73,-99.99,,,-99.99,,2013-02-13 18:23:00,
2013-02-13 12:32:00,42.0,33.0,-100.00,North,0,0.0,-999.0,69,-99.99,,,-99.99,,2013-02-13 18:32:00,
2013-02-13 12:42:00,42.0,33.0,-100.00,North,0,0.0,-999.0,69,-99.99,,,-99.99,,2013-02-13 18:42:00,
2013-02-13 12:52:00,44.0,33.0,-100.00,North,0,0.0,-999.0,66,-99.99,,,-99.99,,2013-02-13 18:52:00,
2013-02-13 13:01:00,44.0,33.0,-100.00,North,0,0.0,-999.0,66,-99.99,,,-99.99,,2013-02-13 19:01:00,
2013-02-13 13:11:00,45.0,34.0,-100.00,SW,236,1.0,-999.0,64,-99.99,,,-99.99,,2013-02-13 19:11:00,
2013-02-13 13:21:00,45.0,34.0,-100.00,SW,236,1.0,-999.0,64,-99.99,,,-99.99,,2013-02-13 19:21:00,
2013-02-13 13:32:00,45.0,34.0,-100.00,SW,236,1.0,-999.0,64,-99.99,,,-99.99,,2013-02-13 19:32:00,
2013-02-13 15:11:00,47.0,33.0,-100.00,WSW,243,1.0,-999.0,58,-99.99,,,-99.99,,2013-02-13 21:11:00,
2013-02-13 15:21:00,46.0,33.0,-100.00,North,0,0.0,-999.0,60,-99.99,,,-99.99,,2013-02-13 21:21:00,
2013-02-13 15:31:00,46.0,33.0,-100.00,North,0,0.0,-999.0,59,-99.99,,,-99.99,,2013-02-13 21:31:00,
2013-02-13 15:42:00,47.0,33.0,-100.00,WSW,243,1.0,-999.0,58,-99.99,,,-99.99,,2013-02-13 21:42:00,
2013-02-13 15:52:00,47.0,33.0,-100.00,WSW,257,1.0,-999.0,58,-99.99,,,-99.99,,2013-02-13 21:52:00,
2013-02-13 16:02:00,47.0,33.0,-100.00,WSW,257,1.0,-999.0,58,-99.99,,,-99.99,,2013-02-13 22:02:00,
2013-02-13 16:11:00,49.0,33.0,-100.00,SW,231,1.0,-999.0,53,-99.99,,,-99.99,,2013-02-13 22:11:00,
2013-02-13 16:21:00,48.0,32.0,-100.00,West,268,0.0,-999.0,55,-99.99,,,-99.99,,2013-02-13 22:21:00,
2013-02-13 16:31:00,48.0,31.0,-100.00,WSW,247,3.0,-999.0,52,-99.99,,,-99.99,,2013-02-13 22:31:00,
2013-02-13 16:42:00,48.0,31.0,-100.00,WSW,257,2.0,-999.0,53,-99.99,,,-99.99,,2013-02-13 22:42:00,
2013-02-13 16:51:00,48.0,31.0,-100.00,WSW,253,2.0,-999.0,53,-99.99,,,-99.99,,2013-02-13 22:51:00,
2013-02-13 17:01:00,47.0,31.0,-100.00,WSW,255,1.0,-999.0,55,-99.99,,,-99.99,,2013-02-13 23:01:00,
2013-02-13 17:11:00,47.0,31.0,-100.00,WSW,255,1.0,-999.0,55,-99.99,,,-99.99,,2013-02-13 23:11:00,
2013-02-13 17:21:00,46.0,33.0,-100.00,North,0,0.0,-999.0,61,-99.99,,,-99.99,,2013-02-13 23:21:00,
2013-02-13 17:32:00,46.0,33.0,-100.00,West,277,3.0,-999.0,61,-99.99,,,-99.99,,2013-02-13 23:32:00,
2013-02-13 17:42:00,45.0,33.0,-100.00,West,280,1.0,-999.0,62,-99.99,,,-99.99,,2013-02-13 23:42:00,
2013-02-13 17:52:00,45.0,34.0,-100.00,West,275,1.0,-999.0,65,-99.99,,,-99.99,,2013-02-13 23:52:00,
2013-02-13 18:02:00,44.0,34.0,-100.00,West,266,1.0,-999.0,67,-99.99,,,-99.99,,2013-02-14 00:02:00,
2013-02-13 18:11:00,44.0,34.0,-100.00,North,0,0.0,-999.0,69,-99.99,,,-99.99,,2013-02-14 00:11:00,
2013-02-13 18:21:00,43.0,34.0,-100.00,North,0,0.0,-999.0,69,-99.99,,,-99.99,,2013-02-14 00:21:00,
2013-02-13 18:32:00,43.0,34.0,-100.00,North,0,0.0,-999.0,69,-99.99,,,-99.99,,2013-02-14 00:32:00,
2013-02-13 18:42:00,42.0,33.0,-100.00,North,0,0.0,-999.0,72,-99.99,,,-99.99,,2013-02-14 00:42:00,
2013-02-13 18:51:00,40.0,34.0,-100.00,North,0,0.0,-999.0,77,-99.99,,,-99.99,,2013-02-14 00:51:00,
2013-02-13 19:01:00,39.0,33.0,-100.00,North,0,0.0,-999.0,80,-99.99,,,-99.99,,2013-02-14 01:01:00,
2013-02-13 19:11:00,38.0,34.0,-100.00,North,0,0.0,-999.0,85,-99.99,,,-99.99,,2013-02-14 01:11:00,
2013-02-13 19:21:00,37.0,34.0,-100.00,North,0,0.0,-999.0,88,-99.99,,,-99.99,,2013-02-14 01:21:00,
2013-02-13 19:32:00,37.0,35.0,-100.00,North,0,0.0,-999.0,90,-99.99,,,-99.99,,2013-02-14 01:32:00,
2013-02-13 19:41:00,37.0,35.0,-100.00,North,0,0.0,-999.0,90,-99.99,,,-99.99,,2013-02-14 01:41:00,
2013-02-13 19:51:00,38.0,36.0,-100.00,North,0,0.0,-999.0,92,-99.99,,,-99.99,,2013-02-14 01:51:00,
2013-02-13 20:01:00,38.0,35.0,-100.00,West,264,1.0,-999.0,90,-99.99,,,-99.99,,2013-02-14 02:01:00,
2013-02-13 20:11:00,37.0,35.0,-100.00,North,0,0.0,-999.0,93,-99.99,,,-99.99,,2013-02-14 02:11:00,
2013-02-13 20:21:00,36.0,35.0,-100.00,North,0,0.0,-999.0,96,-99.99,,,-99.99,,2013-02-14 02:21:00,
2013-02-13 20:31:00,35.0,35.0,-100.00,North,0,0.0,-999.0,98,-99.99,,,-99.99,,2013-02-14 02:31:00,
2013-02-13 20:41:00,35.0,35.0,-100.00,North,0,0.0,-999.0,98,-99.99,,,-99.99,,2013-02-14 02:41:00,
2013-02-13 20:51:00,35.0,35.0,-100.00,North,0,0.0,-999.0,98,-99.99,,,-99.99,,2013-02-14 02:51:00,
2013-02-13 21:02:00,33.0,-99.9,-100.00,North,-999,0.0,-999.0,-999,-99.99,,,-99.99,,2013-02-14 03:02:00,
2013-02-13 21:12:00,34.0,-99.9,-100.00,North,0,0.0,-999.0,-999,-99.99,,,-99.99,,2013-02-14 03:12:00,
2013-02-13 21:22:00,33.0,-99.9,-100.00,North,0,0.0,-999.0,-999,-99.99,,,-99.99,,2013-02-14 03:22:00,
2013-02-13 21:32:00,32.0,-99.9,-100.00,North,0,0.0,-999.0,-999,-99.99,,,-99.99,,2013-02-14 03:32:00,
2013-02-13 21:42:00,33.0,-99.9,-100.00,North,0,0.0,-999.0,-999,-99.99,,,-99.99,,2013-02-14 03:42:00,
2013-02-13 21:52:00,33.0,-99.9,-100.00,North,0,0.0,-999.0,-999,-99.99,,,-99.99,,2013-02-14 03:52:00,
2013-02-13 22:01:00,32.0,-99.9,-100.00,North,0,0.0,-999.0,-999,-99.99,,,-99.99,,2013-02-14 04:01:00,
2013-02-13 22:12:00,32.0,-99.9,-100.00,North,0,0.0,-999.0,-999,-99.99,,,-99.99,,2013-02-14 04:12:00,
2013-02-13 22:22:00,32.0,-99.9,-100.00,North,0,0.0,-999.0,-999,-99.99,,,-99.99,,2013-02-14 04:22:00,
2013-02-13 22:32:00,32.0,-99.9,-100.00,North,0,0.0,-999.0,-999,-99.99,,,-99.99,,2013-02-14 04:32:00,
2013-02-13 22:42:00,32.0,-99.9,-100.00,North,-999,0.0,-999.0,-999,-99.99,,,-99.99,,2013-02-14 04:42:00,
2013-02-13 22:52:00,30.0,-99.9,-100.00,North,0,0.0,-999.0,-999,-99.99,,,-99.99,,2013-02-14 04:52:00,
2013-02-13 23:02:00,31.0,-99.9,-100.00,North,0,0.0,-999.0,-999,-99.99,,,-99.99,,2013-02-14 05:02:00,
2013-02-13 23:11:00,30.0,-99.9,-100.00,North,0,0.0,-999.0,-999,-99.99,,,-99.99,,2013-02-14 05:11:00,
2013-02-13 23:22:00,31.0,-99.9,-100.00,NW,315,0.0,-999.0,-999,-99.99,,,-99.99,,2013-02-14 05:22:00,
2013-02-13 23:32:00,31.0,-99.9,-100.00,North,0,0.0,-999.0,-999,-99.99,,,-99.99,,2013-02-14 05:32:00,
2013-02-13 23:42:00,29.0,-99.9,-100.00,North,0,0.0,-999.0,-999,-99.99,,,-99.99,,2013-02-14 05:42:00,
2013-02-13 23:52:00,29.0,-99.9,-100.00,North,0,0.0,-999.0,-999,-99.99,,,-99.99,,2013-02-14 05:52:00,